IRIDIUM 142

Last updated on Tue Sep 22 2026 00:03:21 GMT+0000 (Coordinated Universal Time)

1 43256U 18030H 26264.32086985 .00000011 00000+0 -32960-5 0 9990 2 43256 86.3913 250.1322 0002003 88.4943 271.6483 14.34217445443915
UTC large
Height (km)
Speed (km/s)
/
Latitude / Longitude
Inclination (degrees)
Orbital Period (minutes)
Azimuth
Elevation
Range (km)
Doppler Factor

Next 0 passes for location: London (51.5072 / 0.1276)

No passes found over London.
IRIDIUM 142